Aeroporto :
LOGIN :

Iscrizione | Disclaimer

   EN    FR    IT 

 










Sommario :    VFR   VFR Marginale   IFR   IFR Intensivo   IFR Molto Intensivo
Visibilità : 
Base nubi : 
>= 8 km
>= 3000ft
5 / 8 km
1000 / 3000 ft
1500m / 5 km
500 / 1000 ft
800 / 1500m
200 / 500 ft
< 800m
< 200 ft
Simboli :   Temporali  Nebbia  Neve Forte  Precipitazioni Forti  Vento > 20 kt
SIGMETs :   Varie  Temporali  Ghiacco  Turbolenza  Onda orograficha  Ceneri Vulcaniche







- Altitudine del aeroporto : 1411 ft
- Codice IATA : GVA


LSGG - Genève Cointrin

ULTIMO METAR :
  • 151950Z 03008KT CAVOK 20/12 Q1016 NOSIG

METARs OBSOLETI :
  • 151920Z 03009KT 9999 FEW050 21/11 Q1015 NOSIG
  • 151850Z 03008KT 9999 FEW050 21/12 Q1015 NOSIG
  • 151820Z 04009KT 9999 FEW050 22/12 Q1015 NOSIG
  • 151750Z 04013KT 9999 FEW050 22/12 Q1015 NOSIG
  • 151720Z 04012KT 9999 FEW050 22/12 Q1015 NOSIG

TAF TAF LSGG
Valido dal 15 a 18 ore il 17 a 00 ore UTC


151725Z 1518/1624 04014KT 9999 FEW050 TX28/1615Z TN13/1604Z
BECMG 1522/1524 VRB03KT CAVOK
BECMG 1606/1608 05007KT
BECMG 1620/1622 VRB03KT
ATIS : +41 22 417 40 81
Nessun NOTAM noto per questo aeroporto.



MetMap, La meteo Aeronautica in un colpo d'occhio ! - Copyright ORBIFLY Dicembre 2007 - Disclaimer

ORBIFLY MET'MAP TEAM :

Programmazione e sviluppo : Alexandra Zaïnal
Concezione e sviluppo : Baudouin d'Aumeries
Co-Programmazione e sviluppo : Marc-Olivier Méhu
Supporto tecnico e logistico : Manuel Goepfert
Aiuto per la traduzione : Arnaldo La Scala

Contatto : metmap@orbifly.com




FONTI E CREDITI :

   NOAA